Time,TemperatureF,DewpointF,PressureIn,WindDirection,WindDirectionDegrees,WindSpeedMPH,WindSpeedGustMPH,Humidity,HourlyPrecipIn,Conditions,Clouds,dailyrainin,SoftwareType,DateUTC
2013-01-02 00:00:00,46.2,45.7,29.31,SW,226,0.0,0.0,98,0.02,CLR,,0.22,WeatherDisplay:10.37,2013-01-02 05:00:00,
2013-01-02 00:03:00,46.2,45.7,29.31,SW,226,0.0,0.0,98,0.02,RA,,0.00,WeatherDisplay:10.37,2013-01-02 05:03:00,
2013-01-02 00:08:00,46.2,45.7,29.31,SW,226,0.0,0.0,98,0.02,RA,,0.00,WeatherDisplay:10.37,2013-01-02 05:08:00,
2013-01-02 00:13:00,46.2,45.7,29.30,SW,226,0.0,0.0,98,0.02,CLR,,0.00,WeatherDisplay:10.37,2013-01-02 05:13:00,
2013-01-02 00:18:00,46.2,45.7,29.30,SW,226,0.0,0.0,98,0.02,CLR,,0.00,WeatherDisplay:10.37,2013-01-02 05:18:00,
2013-01-02 00:23:00,46.2,45.7,29.30,SW,226,0.0,0.0,98,0.03,RA,,0.01,WeatherDisplay:10.37,2013-01-02 05:23:00,
2013-01-02 00:28:00,46.2,45.7,29.29,SW,226,0.0,0.0,98,0.03,RA,,0.01,WeatherDisplay:10.37,2013-01-02 05:28:00,
2013-01-02 00:33:00,46.2,45.7,29.29,SW,226,0.0,0.0,98,0.02,CLR,,0.01,WeatherDisplay:10.37,2013-01-02 05:33:00,
2013-01-02 00:38:00,46.2,45.7,29.29,SW,226,0.0,0.0,98,0.02,CLR,,0.02,WeatherDisplay:10.37,2013-01-02 05:38:00,
2013-01-02 00:43:00,46.2,45.7,29.28,SW,226,0.0,0.0,98,0.03,RA,,0.02,WeatherDisplay:10.37,2013-01-02 05:43:00,
2013-01-02 00:48:00,46.1,45.6,29.28,SW,226,0.0,0.0,98,0.02,RA,,0.02,WeatherDisplay:10.37,2013-01-02 05:48:00,
2013-01-02 00:53:00,46.1,45.6,29.28,SW,226,0.0,0.0,98,0.02,CLR,,0.02,WeatherDisplay:10.37,2013-01-02 05:53:00,
2013-01-02 00:58:00,46.1,45.6,29.29,SW,226,2.3,2.3,98,0.02,CLR,,0.03,WeatherDisplay:10.37,2013-01-02 05:58:00,
2013-01-02 01:03:00,46.1,45.6,29.29,North,7,3.5,0.0,98,0.03,RA,,0.03,WeatherDisplay:10.37,2013-01-02 06:03:00,
2013-01-02 01:08:00,46.1,45.6,29.29,North,8,0.0,0.0,98,0.03,RA,,0.03,WeatherDisplay:10.37,2013-01-02 06:08:00,
2013-01-02 01:13:00,46.1,45.6,29.28,NE,42,4.0,4.0,98,0.03,CLR,,0.03,WeatherDisplay:10.37,2013-01-02 06:13:00,
2013-01-02 01:18:00,46.1,45.6,29.28,NE,48,1.1,1.1,98,0.03,CLR,,0.03,WeatherDisplay:10.37,2013-01-02 06:18:00,
2013-01-02 01:23:00,46.0,45.5,29.28,NE,44,3.5,0.0,98,0.03,RA,,0.04,WeatherDisplay:10.37,2013-01-02 06:23:00,
2013-01-02 01:28:00,45.8,45.3,29.28,NE,44,0.0,1.5,98,0.03,RA,,0.04,WeatherDisplay:10.37,2013-01-02 06:28:00,
2013-01-02 01:33:00,45.8,45.3,29.28,NE,44,1.1,1.2,98,0.03,CLR,,0.04,WeatherDisplay:10.37,2013-01-02 06:33:00,
2013-01-02 01:38:00,45.7,45.2,29.28,NE,44,0.0,0.6,98,0.03,CLR,,0.04,WeatherDisplay:10.37,2013-01-02 06:38:00,
2013-01-02 01:43:00,45.7,45.2,29.26,NE,44,0.0,0.0,98,0.03,RA,,0.05,WeatherDisplay:10.37,2013-01-02 06:43:00,
2013-01-02 01:48:00,45.7,45.2,29.26,NE,44,0.0,0.0,98,0.03,RA,,0.05,WeatherDisplay:10.37,2013-01-02 06:48:00,
2013-01-02 01:53:00,45.7,45.2,29.26,NE,44,2.3,0.0,98,0.03,,,0.05,WeatherDisplay:10.37,2013-01-02 06:53:00,
2013-01-02 01:58:00,45.7,45.4,29.28,NNE,30,3.5,3.5,99,0.03,CLR,,0.05,WeatherDisplay:10.37,2013-01-02 06:58:00,
2013-01-02 02:03:00,45.7,45.4,29.28,NE,44,0.0,0.0,99,0.02,CLR,,0.05,WeatherDisplay:10.37,2013-01-02 07:03:00,
2013-01-02 02:08:00,45.7,45.4,29.28,NNE,23,5.8,5.8,99,0.02,CLR,,0.05,WeatherDisplay:10.37,2013-01-02 07:08:00,
2013-01-02 02:13:00,45.7,45.4,29.28,NE,42,3.5,3.5,99,0.03,RA,,0.06,WeatherDisplay:10.37,2013-01-02 07:13:00,
2013-01-02 02:18:00,45.7,45.4,29.28,NNE,20,3.5,3.5,99,0.03,RA,,0.06,WeatherDisplay:10.37,2013-01-02 07:18:00,
2013-01-02 02:23:00,45.7,45.4,29.28,NE,34,6.9,6.9,99,0.02,CLR,,0.06,WeatherDisplay:10.37,2013-01-02 07:23:00,
2013-01-02 02:28:00,45.5,45.2,29.29,NNE,27,8.1,8.1,99,0.03,RA,,0.07,WeatherDisplay:10.37,2013-01-02 07:28:00,
2013-01-02 02:33:00,45.5,45.2,29.29,NNE,32,4.6,4.6,99,0.04,RA,,0.08,WeatherDisplay:10.37,2013-01-02 07:33:00,
2013-01-02 02:38:00,45.5,45.2,29.29,NE,34,4.6,4.6,99,0.05,RA,,0.09,WeatherDisplay:10.37,2013-01-02 07:38:00,
2013-01-02 02:43:00,45.4,45.1,29.29,NE,44,5.8,5.8,99,0.05,RA,,0.10,WeatherDisplay:10.37,2013-01-02 07:43:00,
2013-01-02 02:48:00,45.4,45.1,29.29,NE,37,0.0,0.0,99,0.05,RA,,0.10,WeatherDisplay:10.37,2013-01-02 07:48:00,
2013-01-02 02:53:00,45.2,44.9,29.29,ENE,58,3.5,3.5,99,0.05,,,0.10,WeatherDisplay:10.37,2013-01-02 07:53:00,
2013-01-02 02:58:00,45.1,44.8,29.30,NE,49,3.5,3.5,99,0.06,RA,,0.11,WeatherDisplay:10.37,2013-01-02 07:58:00,
2013-01-02 03:03:00,44.9,44.6,29.30,NE,38,3.5,3.5,99,0.07,RA,,0.12,WeatherDisplay:10.37,2013-01-02 08:03:00,
2013-01-02 03:08:00,44.8,44.5,29.30,NNE,32,0.0,0.0,99,0.08,RA,,0.13,WeatherDisplay:10.37,2013-01-02 08:08:00,
2013-01-02 03:13:00,44.6,44.3,29.30,NNE,32,3.5,3.5,99,0.07,RA,,0.13,WeatherDisplay:10.37,2013-01-02 08:13:00,
2013-01-02 03:18:00,44.6,44.3,29.30,NE,55,3.5,3.5,99,0.07,,,0.13,WeatherDisplay:10.37,2013-01-02 08:18:00,
2013-01-02 03:23:00,44.5,44.2,29.30,NE,42,1.1,0.0,99,0.07,CLR,,0.13,WeatherDisplay:10.37,2013-01-02 08:23:00,
2013-01-02 03:28:00,44.5,44.2,29.29,NNE,32,1.1,1.1,99,0.06,CLR,,0.13,WeatherDisplay:10.37,2013-01-02 08:28:00,
2013-01-02 03:33:00,44.3,44.0,29.29,NNE,23,3.5,3.5,99,0.06,RA,,0.14,WeatherDisplay:10.37,2013-01-02 08:33:00,
2013-01-02 03:38:00,44.3,44.0,29.29,NNE,25,3.5,3.5,99,0.05,RA,,0.14,WeatherDisplay:10.37,2013-01-02 08:38:00,
2013-01-02 03:43:00,44.3,44.0,29.30,NNE,32,0.0,0.0,99,0.04,CLR,,0.14,WeatherDisplay:10.37,2013-01-02 08:43:00,
2013-01-02 03:48:00,44.3,44.0,29.30,North,0,2.3,2.3,99,0.04,CLR,,0.15,WeatherDisplay:10.37,2013-01-02 08:48:00,
2013-01-02 03:54:00,44.3,44.0,29.30,North,0,2.3,2.3,99,0.05,RA,,0.15,WeatherDisplay:10.37,2013-01-02 08:54:00,
2013-01-02 03:59:00,44.3,44.0,29.31,NNE,23,0.0,0.0,99,0.04,RA,,0.15,WeatherDisplay:10.37,2013-01-02 08:59:00,
2013-01-02 04:04:00,44.2,43.9,29.31,NE,38,3.5,3.5,99,0.03,CLR,,0.15,WeatherDisplay:10.37,2013-01-02 09:04:00,
2013-01-02 04:09:00,44.2,43.9,29.31,North,359,5.8,5.8,99,0.02,CLR,,0.15,WeatherDisplay:10.37,2013-01-02 09:09:00,
2013-01-02 04:14:00,44.2,43.9,29.31,North,10,2.3,2.3,99,0.02,CLR,,0.15,WeatherDisplay:10.37,2013-01-02 09:14:00,
2013-01-02 04:19:00,44.1,43.8,29.31,NE,51,3.5,3.5,99,0.03,RA,,0.16,WeatherDisplay:10.37,2013-01-02 09:19:00,
2013-01-02 04:24:00,44.1,43.8,29.31,NE,56,8.1,8.1,99,0.03,RA,,0.16,WeatherDisplay:10.37,2013-01-02 09:24:00,
2013-01-02 04:29:00,44.1,43.8,29.30,NNE,30,5.8,5.8,99,0.03,CLR,,0.16,WeatherDisplay:10.37,2013-01-02 09:29:00,
2013-01-02 04:34:00,43.9,43.6,29.30,NNE,23,3.5,3.5,99,0.02,CLR,,0.16,WeatherDisplay:10.37,2013-01-02 09:34:00,
2013-01-02 04:39:00,43.8,43.5,29.30,ENE,64,4.6,4.6,99,0.02,CLR,,0.16,WeatherDisplay:10.37,2013-01-02 09:39:00,
2013-01-02 04:44:00,43.8,43.5,29.30,North,0,6.0,6.0,99,0.02,CLR,,0.16,WeatherDisplay:10.37,2013-01-02 09:44:00,
2013-01-02 04:49:00,43.8,43.5,29.30,NE,34,3.5,3.5,99,0.03,RA,,0.17,WeatherDisplay:10.37,2013-01-02 09:49:00,
2013-01-02 04:54:00,43.8,43.5,29.30,NNE,14,10.4,10.4,99,0.02,RA,,0.17,WeatherDisplay:10.37,2013-01-02 09:54:00,
2013-01-02 04:59:00,43.6,43.3,29.30,North,1,4.6,4.6,99,0.02,CLR,,0.17,WeatherDisplay:10.37,2013-01-02 09:59:00,
2013-01-02 05:04:00,43.6,43.3,29.30,North,353,3.5,3.5,99,0.02,CLR,,0.17,WeatherDisplay:10.37,2013-01-02 10:04:00,
2013-01-02 05:09:00,43.6,43.3,29.30,NE,38,3.5,3.5,99,0.02,CLR,,0.17,WeatherDisplay:10.37,2013-01-02 10:09:00,
2013-01-02 05:14:00,43.6,43.3,29.31,North,4,0.0,0.0,99,0.02,CLR,,0.17,WeatherDisplay:10.37,2013-01-02 10:14:00,
2013-01-02 05:19:00,43.5,43.2,29.31,NNE,31,3.5,3.5,99,0.01,CLR,,0.17,WeatherDisplay:10.37,2013-01-02 10:19:00,
2013-01-02 05:24:00,43.5,43.2,29.31,NNE,27,3.5,3.5,99,0.01,CLR,,0.17,WeatherDisplay:10.37,2013-01-02 10:24:00,
2013-01-02 05:29:00,43.5,43.2,29.32,NNE,23,2.3,2.3,99,0.02,RA,,0.18,WeatherDisplay:10.37,2013-01-02 10:29:00,
2013-01-02 05:34:00,43.5,43.2,29.32,East,83,5.8,5.8,99,0.02,RA,,0.18,WeatherDisplay:10.37,2013-01-02 10:34:00,
2013-01-02 05:39:00,43.5,43.2,29.32,NNE,31,4.6,4.6,99,0.02,CLR,,0.18,WeatherDisplay:10.37,2013-01-02 10:39:00,
2013-01-02 05:44:00,43.5,43.2,29.31,NE,38,3.5,3.5,99,0.02,CLR,,0.18,WeatherDisplay:10.37,2013-01-02 10:44:00,
2013-01-02 05:49:00,43.5,43.2,29.31,NE,42,0.0,0.7,99,0.01,CLR,,0.18,WeatherDisplay:10.37,2013-01-02 10:49:00,
2013-01-02 05:54:00,43.5,43.2,29.31,NE,41,0.0,0.0,99,0.01,CLR,,0.18,WeatherDisplay:10.37,2013-01-02 10:54:00,
2013-01-02 05:59:00,43.5,43.2,29.32,NE,41,1.1,0.0,99,0.01,CLR,,0.18,WeatherDisplay:10.37,2013-01-02 10:59:00,
2013-01-02 06:04:00,43.3,43.0,29.32,North,6,4.6,4.6,99,0.01,CLR,,0.18,WeatherDisplay:10.37,2013-01-02 11:04:00,
2013-01-02 06:09:00,43.3,43.0,29.32,NNW,347,6.9,6.9,99,0.01,CLR,,0.18,WeatherDisplay:10.37,2013-01-02 11:09:00,
2013-01-02 06:14:00,43.3,43.0,29.34,NNE,23,2.3,2.3,99,0.01,CLR,,0.18,WeatherDisplay:10.37,2013-01-02 11:14:00,
2013-01-02 06:19:00,43.2,42.9,29.34,NNE,31,2.0,2.1,99,0.01,CLR,,0.19,WeatherDisplay:10.37,2013-01-02 11:19:00,
2013-01-02 06:24:00,43.2,42.9,29.34,NNE,20,0.0,0.0,99,0.02,RA,,0.19,WeatherDisplay:10.37,2013-01-02 11:24:00,
2013-01-02 06:29:00,43.2,42.9,29.33,NNE,23,0.0,0.0,99,0.01,RA,,0.19,WeatherDisplay:10.37,2013-01-02 11:29:00,
2013-01-02 06:34:00,43.2,42.9,29.33,North,359,3.5,3.5,99,0.01,CLR,,0.19,WeatherDisplay:10.37,2013-01-02 11:34:00,
2013-01-02 06:39:00,43.2,42.9,29.33,North,3,1.1,1.1,99,0.01,CLR,,0.19,WeatherDisplay:10.37,2013-01-02 11:39:00,
2013-01-02 06:44:00,43.2,42.9,29.34,North,4,1.1,1.1,99,0.01,CLR,,0.19,WeatherDisplay:10.37,2013-01-02 11:44:00,
2013-01-02 06:49:00,43.2,42.9,29.34,North,359,3.5,3.5,99,0.01,CLR,,0.19,WeatherDisplay:10.37,2013-01-02 11:49:00,
2013-01-02 06:54:00,43.2,42.9,29.34,North,0,0.0,0.0,99,0.01,CLR,,0.19,WeatherDisplay:10.37,2013-01-02 11:54:00,
2013-01-02 06:59:00,43.2,42.9,29.35,North,0,1.1,0.0,99,0.01,CLR,,0.19,WeatherDisplay:10.37,2013-01-02 11:59:00,
2013-01-02 07:04:00,43.2,42.9,29.35,North,0,0.0,0.0,99,0.01,CLR,,0.19,WeatherDisplay:10.37,2013-01-02 12:04:00,
2013-01-02 07:09:00,43.1,42.8,29.35,North,0,0.0,0.0,99,0.01,CLR,,0.19,WeatherDisplay:10.37,2013-01-02 12:09:00,
2013-01-02 07:14:00,43.1,42.8,29.34,North,0,0.0,0.0,99,0.02,RA,,0.20,WeatherDisplay:10.37,2013-01-02 12:14:00,
2013-01-02 07:19:00,43.1,42.8,29.34,North,0,0.0,0.0,99,0.02,RA,,0.20,WeatherDisplay:10.37,2013-01-02 12:19:00,
2013-01-02 07:24:00,43.1,42.8,29.34,North,0,0.0,0.0,99,0.01,,,0.20,WeatherDisplay:10.37,2013-01-02 12:24:00,
2013-01-02 07:29:00,43.2,42.9,29.34,North,0,0.0,0.0,99,0.01,CLR,,0.20,WeatherDisplay:10.37,2013-01-02 12:29:00,
2013-01-02 07:34:00,43.2,42.9,29.34,North,0,0.0,0.0,99,0.01,CLR,,0.20,WeatherDisplay:10.37,2013-01-02 12:34:00,
2013-01-02 07:39:00,43.1,42.8,29.34,North,0,0.0,0.0,99,0.01,CLR,,0.20,WeatherDisplay:10.37,2013-01-02 12:39:00,
2013-01-02 07:44:00,43.1,42.8,29.35,North,0,0.0,0.0,99,0.01,CLR,,0.20,WeatherDisplay:10.37,2013-01-02 12:44:00,
2013-01-02 07:49:00,43.1,42.8,29.35,North,0,0.0,0.0,99,0.01,CLR,,0.20,WeatherDisplay:10.37,2013-01-02 12:49:00,
2013-01-02 07:54:00,43.1,42.8,29.35,North,0,0.0,0.0,99,0.01,CLR,,0.20,WeatherDisplay:10.37,2013-01-02 12:54:00,
2013-01-02 07:59:00,43.2,42.9,29.35,North,0,0.0,0.0,99,0.01,CLR,,0.20,WeatherDisplay:10.37,2013-01-02 12:59:00,
2013-01-02 08:04:00,43.2,42.9,29.35,North,0,0.0,0.0,99,0.01,CLR,,0.20,WeatherDisplay:10.37,2013-01-02 13:04:00,
2013-01-02 08:09:00,43.2,42.9,29.35,North,0,0.0,0.0,99,0.01,CLR,,0.20,WeatherDisplay:10.37,2013-01-02 13:09:00,
2013-01-02 08:14:00,43.2,42.9,29.35,North,0,0.0,0.0,99,0.00,CLR,,0.20,WeatherDisplay:10.37,2013-01-02 13:14:00,
2013-01-02 08:19:00,43.3,43.0,29.35,North,0,2.0,2.0,99,0.00,CLR,,0.20,WeatherDisplay:10.37,2013-01-02 13:19:00,
2013-01-02 08:24:00,43.3,43.0,29.35,North,0,3.5,3.5,99,0.00,CLR,,0.20,WeatherDisplay:10.37,2013-01-02 13:24:00,
2013-01-02 08:29:00,43.3,43.0,29.37,North,11,3.5,3.5,99,0.00,CLR,,0.20,WeatherDisplay:10.37,2013-01-02 13:29:00,
2013-01-02 08:34:00,43.3,43.0,29.37,NNE,32,1.1,1.2,99,0.00,CLR,,0.20,WeatherDisplay:10.37,2013-01-02 13:34:00,
2013-01-02 08:39:00,43.3,43.0,29.37,North,0,5.8,5.8,99,0.00,CLR,,0.20,WeatherDisplay:10.37,2013-01-02 13:39:00,
2013-01-02 08:44:00,43.3,43.0,29.39,NE,41,3.5,3.5,99,0.00,CLR,,0.20,WeatherDisplay:10.37,2013-01-02 13:44:00,
2013-01-02 08:49:00,43.3,43.0,29.39,NNE,25,4.6,4.6,99,0.00,CLR,,0.20,WeatherDisplay:10.37,2013-01-02 13:49:00,
2013-01-02 08:54:00,43.3,43.0,29.39,NW,323,5.8,5.8,99,0.00,CLR,,0.20,WeatherDisplay:10.37,2013-01-02 13:54:00,
2013-01-02 08:59:00,43.3,43.0,29.39,North,1,4.6,4.6,99,0.00,CLR,,0.20,WeatherDisplay:10.37,2013-01-02 13:59:00,
2013-01-02 09:04:00,43.3,43.0,29.39,NNW,340,4.6,4.6,99,0.00,CLR,,0.20,WeatherDisplay:10.37,2013-01-02 14:04:00,
2013-01-02 09:09:00,43.3,43.0,29.39,North,357,5.8,5.8,99,0.00,CLR,,0.20,WeatherDisplay:10.37,2013-01-02 14:09:00,
2013-01-02 09:14:00,43.3,43.0,29.40,North,7,8.1,8.1,99,0.00,CLR,,0.20,WeatherDisplay:10.37,2013-01-02 14:14:00,
2013-01-02 09:19:00,43.3,43.0,29.40,NNE,24,4.6,4.6,99,0.00,CLR,,0.20,WeatherDisplay:10.37,2013-01-02 14:19:00,
2013-01-02 09:24:00,43.1,42.8,29.40,North,0,8.1,8.1,99,0.00,CLR,,0.20,WeatherDisplay:10.37,2013-01-02 14:24:00,
2013-01-02 09:29:00,42.9,42.6,29.40,ENE,62,5.8,5.8,99,0.00,CLR,,0.20,WeatherDisplay:10.37,2013-01-02 14:29:00,
2013-01-02 09:34:00,42.6,42.3,29.40,NNE,14,6.9,6.9,99,0.00,CLR,,0.20,WeatherDisplay:10.37,2013-01-02 14:34:00,
2013-01-02 09:39:00,42.3,42.0,29.40,NNW,329,5.8,5.8,99,0.00,CLR,,0.20,WeatherDisplay:10.37,2013-01-02 14:39:00,
2013-01-02 09:44:00,41.9,41.6,29.42,North,357,6.9,6.9,99,0.00,CLR,,0.20,WeatherDisplay:10.37,2013-01-02 14:44:00,
2013-01-02 09:49:00,41.8,41.5,29.42,NNE,16,5.8,5.8,99,0.00,CLR,,0.20,WeatherDisplay:10.37,2013-01-02 14:49:00,
2013-01-02 09:54:00,41.5,41.2,29.42,NE,45,3.5,4.1,99,0.00,CLR,,0.20,WeatherDisplay:10.37,2013-01-02 14:54:00,
2013-01-02 09:59:00,41.3,41.0,29.43,NE,44,6.9,6.9,99,0.00,CLR,,0.20,WeatherDisplay:10.37,2013-01-02 14:59:00,
2013-01-02 10:04:00,41.2,40.9,29.43,NNE,17,4.6,4.6,99,0.00,CLR,,0.20,WeatherDisplay:10.37,2013-01-02 15:04:00,
2013-01-02 10:09:00,40.9,40.6,29.43,NNE,25,6.9,6.9,99,0.00,CLR,,0.20,WeatherDisplay:10.37,2013-01-02 15:09:00,
2013-01-02 10:14:00,40.5,40.2,29.44,North,354,11.5,11.5,99,0.00,CLR,,0.20,WeatherDisplay:10.37,2013-01-02 15:14:00,
2013-01-02 10:19:00,40.3,40.0,29.44,North,4,11.0,11.0,99,0.00,CLR,,0.20,WeatherDisplay:10.37,2013-01-02 15:19:00,
2013-01-02 10:24:00,40.3,40.0,29.44,NNE,23,4.6,4.6,99,0.00,CLR,,0.20,WeatherDisplay:10.37,2013-01-02 15:24:00,
2013-01-02 10:29:00,40.2,39.9,29.43,ENE,62,9.2,9.2,99,0.00,CLR,,0.20,WeatherDisplay:10.37,2013-01-02 15:29:00,
2013-01-02 10:34:00,40.2,39.9,29.43,NNE,27,5.8,6.2,99,0.00,CLR,,0.20,WeatherDisplay:10.37,2013-01-02 15:34:00,
2013-01-02 10:39:00,40.1,39.8,29.43,NE,38,4.6,4.6,99,0.00,CLR,,0.20,WeatherDisplay:10.37,2013-01-02 15:39:00,
2013-01-02 10:44:00,39.9,39.6,29.44,NE,37,10.4,10.4,99,0.00,CLR,,0.20,WeatherDisplay:10.37,2013-01-02 15:44:00,
2013-01-02 10:49:00,39.8,39.5,29.44,NE,34,3.5,3.5,99,0.00,CLR,,0.20,WeatherDisplay:10.37,2013-01-02 15:49:00,
2013-01-02 10:54:00,39.9,39.6,29.44,NNE,20,6.9,6.9,99,0.00,CLR,,0.20,WeatherDisplay:10.37,2013-01-02 15:54:00,
2013-01-02 10:59:00,39.8,39.5,29.44,NE,40,3.5,3.5,99,0.00,CLR,,0.20,WeatherDisplay:10.37,2013-01-02 15:59:00,
2013-01-02 11:04:00,39.6,39.3,29.44,NE,45,3.5,3.5,99,0.00,CLR,,0.20,WeatherDisplay:10.37,2013-01-02 16:04:00,
2013-01-02 11:09:00,39.6,39.3,29.44,NNE,23,3.5,3.5,99,0.00,CLR,,0.20,WeatherDisplay:10.37,2013-01-02 16:09:00,
2013-01-02 11:14:00,39.6,39.3,29.43,NE,56,5.8,5.8,99,0.00,CLR,,0.20,WeatherDisplay:10.37,2013-01-02 16:14:00,
2013-01-02 11:19:00,39.5,39.2,29.43,North,0,4.6,4.6,99,0.00,CLR,,0.20,WeatherDisplay:10.37,2013-01-02 16:19:00,
2013-01-02 11:24:00,39.6,39.3,29.43,NNE,20,0.0,0.0,99,0.00,CLR,,0.20,WeatherDisplay:10.37,2013-01-02 16:24:00,
2013-01-02 11:29:00,39.6,39.3,29.43,NNE,27,2.3,0.0,99,0.00,CLR,,0.20,WeatherDisplay:10.37,2013-01-02 16:29:00,
2013-01-02 11:34:00,39.6,39.3,29.43,NE,37,0.0,0.0,99,0.00,CLR,,0.20,WeatherDisplay:10.37,2013-01-02 16:34:00,
2013-01-02 11:39:00,39.8,39.5,29.43,NE,41,3.5,3.5,99,0.00,CLR,,0.20,WeatherDisplay:10.37,2013-01-02 16:39:00,
2013-01-02 11:44:00,39.6,39.3,29.44,North,0,6.9,6.9,99,0.00,CLR,,0.20,WeatherDisplay:10.37,2013-01-02 16:44:00,
2013-01-02 11:49:00,39.6,39.3,29.44,NNE,14,6.9,6.9,99,0.00,CLR,,0.20,WeatherDisplay:10.37,2013-01-02 16:49:00,
2013-01-02 11:54:00,39.5,39.2,29.44,North,0,4.6,4.6,99,0.00,CLR,,0.20,WeatherDisplay:10.37,2013-01-02 16:54:00,
2013-01-02 11:59:00,39.5,39.2,29.42,North,1,0.0,0.0,99,0.00,CLR,,0.20,WeatherDisplay:10.37,2013-01-02 16:59:00,
2013-01-02 12:04:00,39.5,39.2,29.42,North,3,3.5,3.5,99,0.00,CLR,,0.20,WeatherDisplay:10.37,2013-01-02 17:04:00,
2013-01-02 12:09:00,39.5,39.2,29.42,NNE,28,2.3,2.3,99,0.00,CLR,,0.20,WeatherDisplay:10.37,2013-01-02 17:09:00,
2013-01-02 12:14:00,39.5,39.2,29.41,NNE,14,2.3,2.3,99,0.00,CLR,,0.20,WeatherDisplay:10.37,2013-01-02 17:14:00,
2013-01-02 12:19:00,39.5,39.2,29.41,NNE,18,0.0,0.0,99,0.00,CLR,,0.20,WeatherDisplay:10.37,2013-01-02 17:19:00,
2013-01-02 12:24:00,39.5,39.2,29.41,North,7,2.3,2.3,99,0.00,CLR,,0.20,WeatherDisplay:10.37,2013-01-02 17:24:00,
2013-01-02 12:29:00,39.5,39.2,29.43,North,7,0.0,0.0,99,0.00,CLR,,0.20,WeatherDisplay:10.37,2013-01-02 17:29:00,
2013-01-02 12:34:00,39.6,39.3,29.43,NNE,20,1.1,1.1,99,0.00,CLR,,0.20,WeatherDisplay:10.37,2013-01-02 17:34:00,
2013-01-02 12:39:00,39.6,39.3,29.43,NNE,20,0.0,0.0,99,0.00,CLR,,0.20,WeatherDisplay:10.37,2013-01-02 17:39:00,
2013-01-02 12:44:00,39.8,39.5,29.42,NE,37,6.9,6.9,99,0.00,CLR,,0.20,WeatherDisplay:10.37,2013-01-02 17:44:00,
2013-01-02 12:49:00,39.9,39.4,29.42,North,0,4.6,4.6,98,0.00,CLR,,0.20,WeatherDisplay:10.37,2013-01-02 17:49:00,
2013-01-02 12:54:00,40.2,39.9,29.42,NNE,23,3.5,3.5,99,0.00,CLR,,0.20,WeatherDisplay:10.37,2013-01-02 17:54:00,
2013-01-02 12:59:00,40.3,40.0,29.41,North,352,0.0,0.0,99,0.00,CLR,,0.20,WeatherDisplay:10.37,2013-01-02 17:59:00,
2013-01-02 13:04:00,40.5,40.2,29.41,North,354,2.3,2.3,99,0.00,CLR,,0.20,WeatherDisplay:10.37,2013-01-02 18:04:00,
2013-01-02 13:09:00,40.5,40.2,29.41,North,0,8.1,8.1,99,0.00,CLR,,0.20,WeatherDisplay:10.37,2013-01-02 18:09:00,
2013-01-02 13:14:00,40.3,40.0,29.40,North,0,5.8,5.8,99,0.00,CLR,,0.20,WeatherDisplay:10.37,2013-01-02 18:14:00,
2013-01-02 13:19:00,40.2,39.9,29.40,NNE,23,6.9,6.9,99,0.00,CLR,,0.20,WeatherDisplay:10.37,2013-01-02 18:19:00,
2013-01-02 13:24:00,40.3,39.8,29.40,NE,38,6.9,6.9,98,0.00,CLR,,0.20,WeatherDisplay:10.37,2013-01-02 18:24:00,
2013-01-02 13:29:00,40.3,39.8,29.39,NE,35,4.6,4.6,98,0.00,CLR,,0.20,WeatherDisplay:10.37,2013-01-02 18:29:00,
2013-01-02 13:34:00,40.3,39.8,29.39,North,350,10.4,10.4,98,0.00,CLR,,0.20,WeatherDisplay:10.37,2013-01-02 18:34:00,
2013-01-02 13:39:00,40.3,39.8,29.39,NNW,336,5.8,5.8,98,0.00,CLR,,0.20,WeatherDisplay:10.37,2013-01-02 18:39:00,
2013-01-02 13:44:00,40.5,39.7,29.41,North,0,5.8,5.8,97,0.00,CLR,,0.20,WeatherDisplay:10.37,2013-01-02 18:44:00,
2013-01-02 13:49:00,40.6,39.5,29.41,North,0,4.6,4.6,96,0.00,CLR,,0.20,WeatherDisplay:10.37,2013-01-02 18:49:00,
2013-01-02 13:54:00,40.8,39.7,29.41,NE,34,3.5,3.5,96,0.00,CLR,,0.20,WeatherDisplay:10.37,2013-01-02 18:54:00,
2013-01-02 13:59:00,41.1,40.0,29.41,NNW,343,0.0,0.0,96,0.00,CLR,,0.20,WeatherDisplay:10.37,2013-01-02 18:59:00,
2013-01-02 14:04:00,41.5,40.4,29.41,NNE,18,2.3,2.3,96,0.00,CLR,,0.20,WeatherDisplay:10.37,2013-01-02 19:04:00,
2013-01-02 14:09:00,41.5,40.2,29.41,NNE,18,3.5,3.5,95,0.00,CLR,,0.20,WeatherDisplay:10.37,2013-01-02 19:09:00,
2013-01-02 14:14:00,41.6,40.0,29.42,NNE,18,2.0,2.0,94,0.00,CLR,,0.20,WeatherDisplay:10.37,2013-01-02 19:14:00,
2013-01-02 14:19:00,41.6,39.7,29.42,North,0,3.5,3.5,93,0.00,CLR,,0.20,WeatherDisplay:10.37,2013-01-02 19:19:00,
2013-01-02 14:24:00,41.6,39.4,29.42,North,354,3.5,3.5,92,0.00,CLR,,0.20,WeatherDisplay:10.37,2013-01-02 19:24:00,
2013-01-02 14:29:00,41.6,38.9,29.41,NNE,24,5.8,5.8,90,0.00,CLR,,0.20,WeatherDisplay:10.37,2013-01-02 19:29:00,
2013-01-02 14:34:00,41.6,38.9,29.41,NE,34,2.3,2.3,90,0.00,CLR,,0.20,WeatherDisplay:10.37,2013-01-02 19:34:00,
2013-01-02 14:39:00,41.8,38.8,29.41,NW,323,4.6,4.6,89,0.00,CLR,,0.20,WeatherDisplay:10.37,2013-01-02 19:39:00,
2013-01-02 14:44:00,41.6,38.6,29.41,North,0,5.8,5.8,89,0.00,CLR,,0.20,WeatherDisplay:10.37,2013-01-02 19:44:00,
2013-01-02 14:50:00,41.6,38.3,29.41,NE,44,3.5,3.5,88,0.00,CLR,,0.20,WeatherDisplay:10.37,2013-01-02 19:50:00,
2013-01-02 14:55:00,41.8,38.8,29.41,NE,44,1.1,1.1,89,0.00,CLR,,0.20,WeatherDisplay:10.37,2013-01-02 19:55:00,
2013-01-02 15:00:00,41.8,38.5,29.41,NE,45,3.5,3.5,88,0.00,CLR,,0.20,WeatherDisplay:10.37,2013-01-02 20:00:00,
2013-01-02 15:05:00,41.9,38.6,29.41,NE,45,0.0,0.0,88,0.00,CLR,,0.20,WeatherDisplay:10.37,2013-01-02 20:05:00,
2013-01-02 15:10:00,41.8,38.5,29.41,NE,54,3.5,3.5,88,0.00,CLR,,0.20,WeatherDisplay:10.37,2013-01-02 20:10:00,
2013-01-02 15:15:00,41.5,37.9,29.41,NNE,16,2.3,0.0,87,0.00,CLR,,0.20,WeatherDisplay:10.37,2013-01-02 20:15:00,
2013-01-02 15:20:00,41.8,37.9,29.41,NNE,16,1.1,1.1,86,0.00,CLR,,0.20,WeatherDisplay:10.37,2013-01-02 20:20:00,
2013-01-02 15:25:00,41.6,37.7,29.41,NNE,18,4.6,4.6,86,0.00,CLR,,0.20,WeatherDisplay:10.37,2013-01-02 20:25:00,
2013-01-02 15:30:00,41.8,37.3,29.43,North,3,3.5,3.5,84,0.00,CLR,,0.20,WeatherDisplay:10.37,2013-01-02 20:30:00,
2013-01-02 15:35:00,41.8,37.0,29.43,North,0,0.0,0.0,83,0.00,CLR,,0.20,WeatherDisplay:10.37,2013-01-02 20:35:00,
2013-01-02 15:40:00,41.9,37.1,29.43,NNE,20,3.5,3.5,83,0.00,CLR,,0.20,WeatherDisplay:10.37,2013-01-02 20:40:00,
2013-01-02 15:45:00,41.8,36.7,29.44,NE,56,1.0,0.0,82,0.00,CLR,,0.20,WeatherDisplay:10.37,2013-01-02 20:45:00,
2013-01-02 15:50:00,41.8,36.7,29.44,NE,48,3.5,3.5,82,0.00,CLR,,0.20,WeatherDisplay:10.37,2013-01-02 20:50:00,
2013-01-02 15:55:00,41.8,36.4,29.44,NE,49,0.0,0.0,81,0.00,CLR,,0.20,WeatherDisplay:10.37,2013-01-02 20:55:00,
2013-01-02 16:00:00,41.8,36.4,29.44,NE,49,0.0,0.0,81,0.00,CLR,,0.20,WeatherDisplay:10.37,2013-01-02 21:00:00,
2013-01-02 16:05:00,41.8,36.4,29.44,NE,49,0.0,0.0,81,0.00,CLR,,0.20,WeatherDisplay:10.37,2013-01-02 21:05:00,
2013-01-02 16:10:00,41.8,36.1,29.44,NE,49,0.0,0.0,80,0.00,CLR,,0.20,WeatherDisplay:10.37,2013-01-02 21:10:00,
2013-01-02 16:15:00,41.8,36.1,29.44,NE,48,2.3,0.0,80,0.00,CLR,,0.20,WeatherDisplay:10.37,2013-01-02 21:15:00,
2013-01-02 16:20:00,41.8,36.4,29.44,NE,48,0.0,0.0,81,0.00,CLR,,0.20,WeatherDisplay:10.37,2013-01-02 21:20:00,
2013-01-02 16:25:00,41.6,35.9,29.44,NE,48,0.0,0.0,80,0.00,CLR,,0.20,WeatherDisplay:10.37,2013-01-02 21:25:00,
2013-01-02 16:30:00,41.8,36.1,29.45,NE,48,0.0,0.0,80,0.00,CLR,,0.20,WeatherDisplay:10.37,2013-01-02 21:30:00,
2013-01-02 16:35:00,41.8,36.1,29.45,NE,48,0.0,0.0,80,0.00,CLR,,0.20,WeatherDisplay:10.37,2013-01-02 21:35:00,
2013-01-02 16:40:00,41.6,35.9,29.45,NE,48,0.0,0.0,80,0.00,CLR,,0.20,WeatherDisplay:10.37,2013-01-02 21:40:00,
2013-01-02 16:45:00,41.6,35.9,29.46,NE,48,0.0,0.0,80,0.00,CLR,,0.20,WeatherDisplay:10.37,2013-01-02 21:45:00,
2013-01-02 16:50:00,41.6,36.2,29.46,NE,48,0.0,0.0,81,0.00,CLR,,0.20,WeatherDisplay:10.37,2013-01-02 21:50:00,
2013-01-02 16:55:00,41.6,36.2,29.46,NE,48,0.0,0.0,81,0.00,CLR,,0.20,WeatherDisplay:10.37,2013-01-02 21:55:00,
2013-01-02 17:00:00,41.5,36.1,29.46,NE,48,0.0,0.0,81,0.00,CLR,,0.20,WeatherDisplay:10.37,2013-01-02 22:00:00,
2013-01-02 17:05:00,41.3,35.9,29.46,NE,48,0.0,0.0,81,0.00,CLR,,0.20,WeatherDisplay:10.37,2013-01-02 22:05:00,
2013-01-02 17:10:00,41.3,36.2,29.46,NE,48,0.0,0.0,82,0.00,CLR,,0.20,WeatherDisplay:10.37,2013-01-02 22:10:00,
2013-01-02 17:15:00,41.2,36.1,29.46,NE,48,0.0,0.0,82,0.00,CLR,,0.20,WeatherDisplay:10.37,2013-01-02 22:15:00,
2013-01-02 17:20:00,41.1,36.0,29.46,NE,48,0.0,0.0,82,0.00,CLR,,0.20,WeatherDisplay:10.37,2013-01-02 22:20:00,
2013-01-02 17:25:00,40.9,35.8,29.46,NE,48,0.0,0.0,82,0.00,CLR,,0.20,WeatherDisplay:10.37,2013-01-02 22:25:00,
2013-01-02 17:30:00,40.8,35.7,29.46,NE,48,0.0,0.0,82,0.00,CLR,,0.20,WeatherDisplay:10.37,2013-01-02 22:30:00,
2013-01-02 17:35:00,40.8,36.0,29.46,NE,48,0.0,0.0,83,0.00,CLR,,0.20,WeatherDisplay:10.37,2013-01-02 22:35:00,
2013-01-02 17:40:00,40.6,35.8,29.46,NE,48,0.0,0.0,83,0.00,CLR,,0.20,WeatherDisplay:10.37,2013-01-02 22:40:00,
2013-01-02 17:45:00,40.5,35.7,29.46,NE,48,0.0,0.0,83,0.00,CLR,,0.20,WeatherDisplay:10.37,2013-01-02 22:45:00,
2013-01-02 17:50:00,40.3,35.5,29.46,NE,48,0.0,0.0,83,0.00,CLR,,0.20,WeatherDisplay:10.37,2013-01-02 22:50:00,
2013-01-02 17:55:00,40.2,35.8,29.46,NE,48,0.0,0.0,84,0.00,CLR,,0.20,WeatherDisplay:10.37,2013-01-02 22:55:00,
2013-01-02 18:00:00,40.2,35.8,29.46,NE,48,0.0,0.0,84,0.00,CLR,,0.20,WeatherDisplay:10.37,2013-01-02 23:00:00,
2013-01-02 18:05:00,40.1,36.0,29.46,NE,48,0.0,0.0,85,0.00,CLR,,0.20,WeatherDisplay:10.37,2013-01-02 23:05:00,
2013-01-02 18:10:00,40.1,36.2,29.46,NE,48,0.0,0.0,86,0.00,CLR,,0.20,WeatherDisplay:10.37,2013-01-02 23:10:00,
2013-01-02 18:15:00,39.9,36.1,29.47,NE,48,0.0,0.0,86,0.00,CLR,,0.20,WeatherDisplay:10.37,2013-01-02 23:15:00,
2013-01-02 18:20:00,39.8,36.0,29.47,NE,48,0.0,0.0,86,0.00,CLR,,0.20,WeatherDisplay:10.37,2013-01-02 23:20:00,
2013-01-02 18:25:00,39.8,36.2,29.47,NE,48,0.0,0.0,87,0.00,CLR,,0.20,WeatherDisplay:10.37,2013-01-02 23:25:00,
2013-01-02 18:30:00,39.8,36.2,29.46,NE,48,0.0,0.0,87,0.00,CLR,,0.20,WeatherDisplay:10.37,2013-01-02 23:30:00,
2013-01-02 18:35:00,39.8,36.5,29.46,NE,48,0.0,0.0,88,0.00,CLR,,0.20,WeatherDisplay:10.37,2013-01-02 23:35:00,
2013-01-02 18:40:00,39.8,36.5,29.46,NE,48,0.0,0.0,88,0.00,CLR,,0.20,WeatherDisplay:10.37,2013-01-02 23:40:00,
2013-01-02 18:45:00,39.6,36.3,29.47,NE,48,0.0,0.0,88,0.00,CLR,,0.20,WeatherDisplay:10.37,2013-01-02 23:45:00,
2013-01-02 18:50:00,39.6,36.6,29.47,NE,48,0.0,0.0,89,0.00,CLR,,0.20,WeatherDisplay:10.37,2013-01-02 23:50:00,
2013-01-02 18:55:00,39.5,36.5,29.47,NE,48,0.0,0.0,89,0.00,CLR,,0.20,WeatherDisplay:10.37,2013-01-02 23:55:00,
2013-01-02 19:00:00,39.3,36.3,29.48,NE,48,0.0,0.0,89,0.00,CLR,,0.20,WeatherDisplay:10.37,2013-01-03 00:00:00,
2013-01-02 19:05:00,39.3,36.6,29.48,NE,48,0.0,0.0,90,0.00,CLR,,0.20,WeatherDisplay:10.37,2013-01-03 00:05:00,
2013-01-02 19:10:00,39.2,36.5,29.48,NE,48,0.0,0.0,90,0.00,CLR,,0.20,WeatherDisplay:10.37,2013-01-03 00:10:00,
2013-01-02 19:15:00,39.2,36.5,29.47,NE,48,0.0,0.0,90,0.00,CLR,,0.20,WeatherDisplay:10.37,2013-01-03 00:15:00,
2013-01-02 19:20:00,39.1,36.4,29.47,NE,48,0.0,0.0,90,0.00,CLR,,0.20,WeatherDisplay:10.37,2013-01-03 00:20:00,
2013-01-02 19:25:00,39.2,36.8,29.47,ENE,61,0.0,0.0,91,0.00,CLR,,0.20,WeatherDisplay:10.37,2013-01-03 00:25:00,
2013-01-02 19:30:00,39.2,36.5,29.50,ENE,61,0.0,0.0,90,0.00,CLR,,0.20,WeatherDisplay:10.37,2013-01-03 00:30:00,
2013-01-02 19:35:00,39.2,36.5,29.50,ENE,61,0.0,0.0,90,0.00,CLR,,0.20,WeatherDisplay:10.37,2013-01-03 00:35:00,
2013-01-02 19:40:00,39.2,36.5,29.50,ENE,61,0.0,0.0,90,0.00,CLR,,0.20,WeatherDisplay:10.37,2013-01-03 00:40:00,
2013-01-02 19:45:00,39.2,36.5,29.50,ENE,61,0.0,0.0,90,0.00,CLR,,0.20,WeatherDisplay:10.37,2013-01-03 00:45:00,
2013-01-02 19:50:00,39.2,36.5,29.50,ENE,61,0.0,0.0,90,0.00,CLR,,0.20,WeatherDisplay:10.37,2013-01-03 00:50:00,
2013-01-02 19:55:00,39.2,36.5,29.50,ENE,61,0.0,0.0,90,0.00,CLR,,0.20,WeatherDisplay:10.37,2013-01-03 00:55:00,
2013-01-02 20:00:00,39.2,36.5,29.50,ENE,61,0.0,0.0,90,0.00,CLR,,0.20,WeatherDisplay:10.37,2013-01-03 01:00:00,
2013-01-02 20:05:00,39.2,36.5,29.50,ENE,61,0.0,0.0,90,0.00,CLR,,0.20,WeatherDisplay:10.37,2013-01-03 01:05:00,
2013-01-02 20:10:00,39.2,36.5,29.50,ENE,61,0.0,0.0,90,0.00,CLR,,0.20,WeatherDisplay:10.37,2013-01-03 01:10:00,
2013-01-02 20:15:00,39.1,36.4,29.50,ENE,61,0.0,0.0,90,0.00,CLR,,0.20,WeatherDisplay:10.37,2013-01-03 01:15:00,
2013-01-02 20:20:00,38.9,36.5,29.50,ENE,61,0.0,0.0,91,0.00,CLR,,0.20,WeatherDisplay:10.37,2013-01-03 01:20:00,
2013-01-02 20:25:00,38.9,36.5,29.51,ENE,61,0.0,0.0,91,0.00,CLR,,0.20,WeatherDisplay:10.37,2013-01-03 01:25:00,
2013-01-02 20:30:00,38.9,36.5,29.51,ENE,61,0.0,0.0,91,0.00,CLR,,0.20,WeatherDisplay:10.37,2013-01-03 01:30:00,
2013-01-02 20:35:00,38.9,36.5,29.51,ENE,61,0.0,0.0,91,0.00,CLR,,0.20,WeatherDisplay:10.37,2013-01-03 01:35:00,
2013-01-02 20:40:00,38.9,36.5,29.51,ENE,61,0.0,0.0,91,0.00,CLR,,0.20,WeatherDisplay:10.37,2013-01-03 01:40:00,
2013-01-02 20:45:00,38.9,36.5,29.49,ENE,61,0.0,0.0,91,0.00,CLR,,0.20,WeatherDisplay:10.37,2013-01-03 01:45:00,
2013-01-02 20:50:00,38.8,36.4,29.49,ENE,61,0.0,0.0,91,0.00,CLR,,0.20,WeatherDisplay:10.37,2013-01-03 01:50:00,
2013-01-02 20:55:00,38.8,36.7,29.49,ENE,61,0.0,0.0,92,0.00,CLR,,0.20,WeatherDisplay:10.37,2013-01-03 01:55:00,
2013-01-02 21:00:00,38.8,36.7,29.49,ENE,61,0.0,0.0,92,0.00,CLR,,0.20,WeatherDisplay:10.37,2013-01-03 02:00:00,
2013-01-02 21:05:00,38.8,36.7,29.49,ENE,61,0.0,0.0,92,0.00,CLR,,0.20,WeatherDisplay:10.37,2013-01-03 02:05:00,
2013-01-02 21:10:00,38.8,36.7,29.50,ENE,61,0.0,0.0,92,0.00,CLR,,0.20,WeatherDisplay:10.37,2013-01-03 02:10:00,
2013-01-02 21:15:00,38.8,36.7,29.50,ENE,61,0.0,0.0,92,0.00,CLR,,0.20,WeatherDisplay:10.37,2013-01-03 02:15:00,
2013-01-02 21:20:00,38.6,36.5,29.50,ENE,61,0.0,0.0,92,0.00,CLR,,0.20,WeatherDisplay:10.37,2013-01-03 02:20:00,
2013-01-02 21:25:00,38.6,36.5,29.50,ENE,61,0.0,0.0,92,0.00,CLR,,0.20,WeatherDisplay:10.37,2013-01-03 02:25:00,
2013-01-02 21:30:00,38.6,36.5,29.50,ENE,61,2.3,2.3,92,0.00,CLR,,0.20,WeatherDisplay:10.37,2013-01-03 02:30:00,
2013-01-02 21:35:00,38.6,36.5,29.50,ENE,61,0.0,0.0,92,0.00,CLR,,0.20,WeatherDisplay:10.37,2013-01-03 02:35:00,
2013-01-02 21:40:00,38.6,36.5,29.51,South,181,0.0,0.0,92,0.00,CLR,,0.20,WeatherDisplay:10.37,2013-01-03 02:40:00,
2013-01-02 21:45:00,38.6,36.5,29.51,ENE,61,0.0,0.0,92,0.00,CLR,,0.20,WeatherDisplay:10.37,2013-01-03 02:45:00,
2013-01-02 21:50:00,38.6,36.5,29.51,ENE,61,0.0,0.0,92,0.00,CLR,,0.20,WeatherDisplay:10.37,2013-01-03 02:50:00,
2013-01-02 21:55:00,38.6,36.5,29.50,ENE,61,0.0,0.0,92,0.00,CLR,,0.20,WeatherDisplay:10.37,2013-01-03 02:55:00,
2013-01-02 22:00:00,38.5,36.4,29.50,ENE,61,0.0,0.0,92,0.00,CLR,,0.20,WeatherDisplay:10.37,2013-01-03 03:00:00,
2013-01-02 22:05:00,38.5,36.4,29.50,ENE,61,0.0,0.0,92,0.00,CLR,,0.20,WeatherDisplay:10.37,2013-01-03 03:05:00,
2013-01-02 22:10:00,38.5,36.4,29.50,ENE,61,0.0,0.0,92,0.00,CLR,,0.20,WeatherDisplay:10.37,2013-01-03 03:10:00,
2013-01-02 22:15:00,38.5,36.4,29.50,ENE,65,0.0,0.0,92,0.00,CLR,,0.20,WeatherDisplay:10.37,2013-01-03 03:15:00,
2013-01-02 22:20:00,38.3,36.2,29.50,ENE,71,0.0,0.0,92,0.00,CLR,,0.20,WeatherDisplay:10.37,2013-01-03 03:20:00,
2013-01-02 22:25:00,38.3,36.5,29.51,ESE,102,0.0,0.0,93,0.00,CLR,,0.20,WeatherDisplay:10.37,2013-01-03 03:25:00,
2013-01-02 22:31:00,38.3,36.5,29.51,ESE,102,0.0,0.0,93,0.00,CLR,,0.20,WeatherDisplay:10.37,2013-01-03 03:31:00,
2013-01-02 22:37:00,38.3,36.5,29.51,ESE,102,0.0,0.0,93,0.00,CLR,,0.20,WeatherDisplay:10.37,2013-01-03 03:37:00,
2013-01-02 22:42:00,38.3,36.5,29.51,ESE,102,0.0,0.0,93,0.00,CLR,,0.20,WeatherDisplay:10.37,2013-01-03 03:42:00,
2013-01-02 22:47:00,38.3,36.5,29.51,ESE,102,0.0,0.0,93,0.00,CLR,,0.20,WeatherDisplay:10.37,2013-01-03 03:47:00,
2013-01-02 22:52:00,38.3,36.5,29.51,ESE,102,0.0,0.0,93,0.00,CLR,,0.20,WeatherDisplay:10.37,2013-01-03 03:52:00,
2013-01-02 22:57:00,38.3,36.5,29.52,ESE,102,0.0,0.0,93,0.00,CLR,,0.20,WeatherDisplay:10.37,2013-01-03 03:57:00,
2013-01-02 23:02:00,38.3,36.7,29.52,ESE,102,0.0,0.0,94,0.00,CLR,,0.20,WeatherDisplay:10.37,2013-01-03 04:02:00,
2013-01-02 23:07:00,38.2,36.6,29.52,ESE,102,0.0,0.0,94,0.00,CLR,,0.20,WeatherDisplay:10.37,2013-01-03 04:07:00,
2013-01-02 23:12:00,38.2,36.6,29.52,ESE,102,0.0,0.0,94,0.00,CLR,,0.20,WeatherDisplay:10.37,2013-01-03 04:12:00,
2013-01-02 23:17:00,38.2,36.6,29.52,ESE,102,0.0,0.0,94,0.00,CLR,,0.20,WeatherDisplay:10.37,2013-01-03 04:17:00,
2013-01-02 23:22:00,38.2,36.6,29.52,ESE,102,0.0,0.0,94,0.00,CLR,,0.20,WeatherDisplay:10.37,2013-01-03 04:22:00,
2013-01-02 23:27:00,38.2,36.6,29.53,ESE,102,0.0,0.0,94,0.00,CLR,,0.20,WeatherDisplay:10.37,2013-01-03 04:27:00,
2013-01-02 23:32:00,38.2,36.6,29.53,ESE,102,0.0,0.0,94,0.00,CLR,,0.20,WeatherDisplay:10.37,2013-01-03 04:32:00,
2013-01-02 23:37:00,38.2,36.6,29.53,ESE,102,0.0,0.0,94,0.00,CLR,,0.20,WeatherDisplay:10.37,2013-01-03 04:37:00,
2013-01-02 23:42:00,38.0,36.4,29.52,ESE,102,0.0,0.0,94,0.00,CLR,,0.20,WeatherDisplay:10.37,2013-01-03 04:42:00,
2013-01-02 23:47:00,38.0,36.4,29.52,ESE,102,0.0,0.0,94,0.00,CLR,,0.20,WeatherDisplay:10.37,2013-01-03 04:47:00,
2013-01-02 23:52:00,38.0,36.4,29.52,ESE,102,0.0,0.0,94,0.00,CLR,,0.20,WeatherDisplay:10.37,2013-01-03 04:52:00,
2013-01-02 23:57:00,38.0,36.4,29.51,ESE,102,0.0,0.0,94,0.00,CLR,,0.20,WeatherDisplay:10.37,2013-01-03 04:57:00,